Regional Weather Roundup
Issued by NWS

Home | Current Version | Previous Version | Text Only | Print | Product List | Glossary Off
Versions: 1 2 3 4 5 6 7 8 9 10 11 12 13 14 15 16 17 18 19 20 21 22 23 24 25 26 27 28 29 30 31 32 33 34 35 36 37 38 39 40 41 42 43 44 45 46 47 48 49 50

000
ASUS43 KLSX 270107
RWRMO

WEATHER SUMMARY FOR MISSOURI
NATIONAL WEATHER SERVICE SPRINGFIELD MO
800 PM CDT MON JUN 26 2017

NOTE: "FAIR" INDICATES FEW OR NO CLOUDS BELOW 12,000 FEET WITH NO
       SIGNIFICANT WEATHER AND/OR OBSTRUCTIONS TO VISIBILITY.
       CURRENT SKY AND/OR WEATHER CONDITIONS ARE NOT AVAILABLE FOR
       CHILLICOTHE AND FARMINGTON.

MOZ001>031-035>038-043-044-053-054-270200-
...NORTHERN AND WESTERN MISSOURI...

CITY           SKY/WX    TMP DP  RH WIND       PRES   REMARKS
KANSAS CTY INT CLOUDY    66  61  84 NE5       30.12S
KANSAS C DTWN  CLOUDY    66  60  81 NE6       30.11F
LEE`S SUMMIT   CLOUDY    65  59  81 SE8       30.10F
ST JOSEPH      PTCLDY    68  61  78 S5        30.10F
CHILLICOTHE      N/A     71  58  63 CALM      30.12S
KIRKSVILLE     CLEAR     67  55  65 SW6       30.11R

$$
MOZ066>068-077>081-088>096-101>105-270200-
...SOUTHWEST MISSOURI...

CITY           SKY/WX    TMP DP  RH WIND       PRES   REMARKS
SPRINGFIELD    CLOUDY    66  57  72 E13       30.10F
JOPLIN         PTCLDY    72  66  81 E10       30.07F
BRANSON        MOCLDY    68  63  83 NE10G20   30.12R

$$
MOZ032>034-039>042-045>050-055>058-069>072-270200-
...CENTRAL MISSOURI...

CITY           SKY/WX    TMP DP  RH WIND       PRES   REMARKS
COLUMBIA       PTCLDY    64  60  87 W5        30.12R
JEFFERSON CITY PTCLDY    66  60  81 NW3       30.11S
ROLLA          CLOUDY    61  59  93 S5        30.11S
SEDALIA        LGT RAIN  66  64  93 N5        30.13S FOG
WHITEMAN AFB   LGT RAIN  64  64 100 NE5       30.12R
WARRENSBURG    LGT RAIN  63  61  94 N5        30.13R
OSAGE BEACH    CLOUDY    64  60  87 CALM      30.12S

$$
MOZ051-052-059>065-270200-
...EAST CENTRAL MISSOURI...

CITY           SKY/WX    TMP DP  RH WIND       PRES   REMARKS
ST LOUIS INTL  PTCLDY    70  52  52 W7        30.10S
SPIRIT OF STL  PTCLDY    66  56  70 W3        30.10S
ST CHARLES     CLEAR     70  53  54 W6        30.09S

$$
MOZ072>076-082>087-097>100-106>115-270200-
...SOUTH CENTRAL AND SOUTHEAST MISSOURI...

CITY           SKY/WX    TMP DP  RH WIND       PRES   REMARKS
CAPE GIRARDEAU CLOUDY    68  61  78 VRB3      30.09F
FARMINGTON     CLOUDY    65  58  78 CALM      30.11S
POPLAR BLUFF   CLOUDY    66  65  96 NW7       30.13R
WEST PLAINS    CLOUDY    62  58  86 NE6       30.14F

$$



USA.gov is the U.S. government's official web portal to all federal, state and local government web resources and services.